Location: Splawn
(30.9202°N, 96.9858°W)
Time: 22:58:25
(UTC+00:00)

Transit 2A Rocket - Pass Details

Date: 01 March 2020
Orbit: 589 x 914 km, 66.7° (Epoch: 01 April)

Event Time Altitude Azimuth Distance (km) Brightness Sun altitude
Rises 12:45:30 0° 327° (NNW) 3,262 7.9 -2.6°
Reaches altitude 10° 12:47:54 10° 322° (NW) 2,380 7.1 -2.1°
Maximum altitude 12:53:11 48° 249° (WSW) 1,094 5.5 -1.0°
Drops below altitude 10° 12:58:51 10° 176° (S) 2,541 7.9 0.2°
Sets 13:01:29 0° 171° (S) 3,503 8.7 0.8°
